Flag for Germany Weather past 2 weeks in Emmendingen, Baden-Württemberg, Germany

Now
63 °F

Clear.


Feels Like: 63 °F
Forecast: 51 / 80 °F
Wind: 1 mph from North

Location: Lahr - CAN-AFB

Current Time: Sep 16, 2014 at 11:55:02 PM

Latest Report: Sep 16, 2014 at 10:20 PM


Visibility: 10 mi

Pressure: 29.92 "Hg

Humidity: 94%

Dew point: 61 °F

Location of EmmendingenLocation

Historic Weather in Emmendingen — Graph

°F

Emmendingen temperature yesterday

Maximum temperature yesterday: 72 °F (at 2:50 PM)
Minimum temperature yesterday: 55 °F (at 7:50 AM)
Average temperature yesterday: 65 °F

Past Weeks' High & Low Weather Summary

 TemperatureHumidityPressure
High79 °F (Sep 6, 1:50 PM)100% (Sep 5, 7:50 AM)30.15 "Hg (Sep 5, 7:50 AM)
Low52 °F (Sep 11, 7:50 AM)48% (Sep 8, 4:20 PM)29.86 "Hg (Sep 6, 4:20 PM)
Average66 °F75%30.02 "Hg
* Reported Sep 2 7:50 AM — Sep 16 10:20 PM, Emmendingen, Weather by CustomWeather, © 2014

Note: Actual official high and low records may vary slightly from our data, if they occured in-between our weather recording intervals... More about our weather records

Advertising

Emmendingen weather history for previous 24 hours

 ConditionsComfort  
Time TempWeatherWind HumidityBarometerVisibility
10:20 PM
Sep 16
63 °FClear.1 mph94%29.92 "Hg10 mi
7:50 PM68 °FPassing clouds.2 mph78%29.92 "HgN/A
7:20 PM70 °FPassing clouds.5 mph73%29.92 "HgN/A
6:50 PM72 °FPassing clouds.7 mph69%29.92 "HgN/A
6:20 PM73 °FPassing clouds.7 mph65%29.92 "HgN/A
5:50 PM73 °FPassing clouds.6 mph65%29.92 "HgN/A
5:20 PM75 °FPassing clouds.6 mph61%29.92 "HgN/A
4:50 PM73 °FPassing clouds.6 mph65%29.92 "HgN/A
4:20 PM75 °FPassing clouds.6 mph65%29.92 "HgN/A
3:50 PM75 °FPassing clouds.6 mph65%29.92 "HgN/A
3:20 PM73 °FPassing clouds.6 mph69%29.95 "HgN/A
2:50 PM73 °FPassing clouds.6 mph65%29.95 "HgN/A
2:20 PM73 °FPassing clouds.6 mph69%29.95 "HgN/A
1:50 PM72 °FPassing clouds.5 mph73%29.95 "HgN/A
1:20 PM70 °FPassing clouds.3 mph73%29.98 "HgN/A
12:50 PM68 °FPassing clouds.5 mph83%29.98 "HgN/A
12:20 PM68 °FScattered clouds.3 mph78%29.98 "Hg4 mi
11:50 AM66 °FFog.2 mph83%30.01 "Hg3 mi
11:20 AM63 °FFog.2 mph88%30.01 "Hg3 mi
10:50 AM61 °FFog.2 mph94%30.01 "Hg3 mi
10:20 AM59 °FFog.2 mph100%30.01 "Hg1 mi
9:50 AM59 °FPartly sunny.2 mph100%30.01 "Hg1 mi
9:20 AM57 °FFog.2 mph100%30.01 "Hg1 mi
8:50 AM55 °FCool.3 mph100%30.01 "Hg1 mi
8:20 AM57 °FFog.2 mph100%30.01 "Hg0 mi
7:50 AM55 °FFog.1 mph100%29.98 "Hg0 mi
Weather by CustomWeather, © 2014

See weather overviewHow to use our weather pages